STARLINK-32873, 62857

Orbit data source: Space-Track

STARLINK-32873, 62857 is a payload satellite owned by SpaceX/Seattle (US) in LEO that was launched on Sat, 01 Feb 2025 UTC via an FALCON 9 launch vehicle from the Air Force Western Test Range (AFWTR). Payload-class satellites include a variety of spacecraft equipped with specific instruments for various scientific and technological missions. These include communications satellites like Starlink; space stations such as the ISS; scientific satellites like the Hubble; Earth observation satellites from companies like Planet Labs, Umbra, and HawkEye 360; GPS; miniature CubeSats for education and research; and military/defense satellites.

Loading next visibility...
Identifier
62857, 2025-022D
Orbit
LEO
Last TLE update
6 hours ago
Origin
Manufacturer
SpaceX/Seattle
Mission
Operational Commercial Communications
Bus & Motor
STARLINK V2M, Unknown motor
Mass
730 kg wet, ~700 kg dry
Launch date (UTC)
2025-02-01 (5 months ago)
Launch vehicle
FALCON 9
Launch site
Air Force Western Test Range (AFWTR)
Object type
Payload
Rocket body
Debris
Shape & HBR
Box + 2 Pan, 29 m
Radar Cross Section
33.884 m², Large (>1 m²)

Expand to show TLE details & history

TLE from 6 hours ago
0 STARLINK-32873
1 62857U 25022D   25182.13152054  .00020746  00000-0  52699-3 0  9991
2 62857  53.1568 218.9212 0001206  99.9160 260.1981 15.39632684 24185
Epoch: 2025-07-01T03:09Z
TLE epoch observation values (Epoch: 2025-07-01T03:09:23.374Z)
Latitude
-0.00003°
Longitude
-107.85759°
Altitude
448.238 km
Speed
7.644 km/s
True Right ascension
14h 35m 41s
True Declination
0° 00' 00"
Sunlit
Object was in full shadow at epoch
Visualization orbit readout
Latitude
-35.56697°
Longitude
103.22737°
Altitude
458.996 km
Speed
7.637 km/s
Apparent Right ascension
06h 25m 28s
Apparent Declination
-41° 03' 05"
Sunlit
Object is in daylight
Visualization observer readout
Local Sidereal Time
20:26:43
Azimuth
102.727° ESE
Elevation
-67.033°
Doppler factor
1
Orbital elements
Apogee altitude
448.276 km
Perigee altitude
446.629 km
Semi-major axis
6,825.59 km
Eccentricity
0.00012
Inclination
53.1568°
RAAN
218.9212°
Arg. of periapsis
99.916°
True anomaly
Unknown
Mean anomaly
260.1981°
Eccentric anomaly
Unknown
Mean motion
3.84887 °/min
Orbital period
93.53 mins
BSTAR
0.00052699
Loading maneuver chart data...
Loading SW <> Apogee altitude chart data...
Loading historical data...
Loading historical data...
Loading historical data...
Loading historical data...
Loading historical data...
Loading historical data...
Loading historical data...

STARLINK-32873 Visibility forecast

Observer location: undefined°, undefined°

Span
Click to sort rows by Start time (UTC) header in descending order
Start Az.
Max El. time (UTC)
Max El. Az.
Max El.
End time (UTC)
End Az.
5 mins2025-07-01 11:25:32.821Z334.665° NNW2025-07-01 11:27:32.821Z25.068° NE28.958°2025-07-01 11:30:32.821Z96.226° ESE
4 mins2025-07-01 13:03:32.821Z266.377° W2025-07-01 13:04:32.821Z240.557° WSW24.029°2025-07-01 13:07:32.821Z172.614° S
4 mins2025-07-02 04:15:32.821Z168.083° S2025-07-02 04:16:32.821Z142.855° SSE23.306°2025-07-02 04:19:32.821Z76.243° E
4 mins2025-07-02 05:52:32.821Z278.451° WNW2025-07-02 05:54:32.821Z345.306° N28.817°2025-07-02 05:56:32.821Z28.825° NE
|